Вернуться в каталог

PSLV R/B

АктивенHEO
NORAD 40548·ROCKET BODY·🇮🇳 India

Запущен Mar 28, 2015 с Satish Dhawan Space Centre

Loading…

Ближайшие Пролёты (ближайшие 24 часа)

TLE

СвежийSource: Space-Track

Эпоха: Sep 14, 2026, 03:24 UTC

1 40548U 15018B   26257.14186575  .00010083  00000-0  10626-2 0  9994
2 40548  19.0400  75.7735 5705127  61.3520 344.1282  4.52139264172634

Отслеживайте PSLV R/B в реальном времени с AllMySat

Download on the App Store